Time,TemperatureF,DewpointF,PressureIn,WindDirection,WindDirectionDegrees,WindSpeedMPH,WindSpeedGustMPH,Humidity,HourlyPrecipIn,Conditions,Clouds,dailyrainin,SoftwareType,DateUTC
2013-02-19 00:01:00,42.0,13.0,-100.00,South,169,11.0,23.0,30,-99.99,,,-99.99,,2013-02-19 08:01:00,
2013-02-19 00:11:00,42.0,13.0,-100.00,South,169,11.0,23.0,30,-99.99,,,-99.99,,2013-02-19 08:11:00,
2013-02-19 00:21:00,42.0,18.0,-100.00,South,175,10.0,20.0,37,-99.99,,,-99.99,,2013-02-19 08:21:00,
2013-02-19 00:31:00,42.0,18.0,-100.00,South,175,10.0,20.0,37,-99.99,,,-99.99,,2013-02-19 08:31:00,
2013-02-19 00:42:00,41.0,22.0,-100.00,SE,128,10.0,15.0,48,-99.99,,,-99.99,,2013-02-19 08:42:00,
2013-02-19 00:52:00,41.0,22.0,-100.00,SE,128,10.0,15.0,48,-99.99,,,-99.99,,2013-02-19 08:52:00,
2013-02-19 01:01:00,41.0,21.0,-100.00,ESE,103,3.0,7.0,44,-99.99,,,-99.99,,2013-02-19 09:01:00,
2013-02-19 01:11:00,41.0,21.0,-100.00,ESE,103,3.0,7.0,44,-99.99,,,-99.99,,2013-02-19 09:11:00,
2013-02-19 01:21:00,40.0,18.0,-100.00,SSW,212,9.0,19.0,40,-99.99,,,-99.99,,2013-02-19 09:21:00,
2013-02-19 01:31:00,40.0,18.0,-100.00,SSW,212,9.0,19.0,40,-99.99,,,-99.99,,2013-02-19 09:31:00,
2013-02-19 01:41:00,39.0,20.0,-100.00,SSW,198,6.0,13.0,47,-99.99,,,-99.99,,2013-02-19 09:41:00,
2013-02-19 01:53:00,39.0,20.0,-100.00,SSW,198,6.0,13.0,47,-99.99,,,-99.99,,2013-02-19 09:53:00,
2013-02-19 02:01:00,38.0,24.0,-100.00,ESE,121,10.0,17.0,57,-99.99,,,-99.99,,2013-02-19 10:01:00,
2013-02-19 02:11:00,38.0,24.0,-100.00,ESE,121,10.0,17.0,57,-99.99,,,-99.99,,2013-02-19 10:11:00,
2013-02-19 02:21:00,37.0,27.0,-100.00,SE,138,9.0,21.0,66,-99.99,,,-99.99,,2013-02-19 10:21:00,
2013-02-19 02:31:00,37.0,27.0,-100.00,SE,138,9.0,21.0,66,-99.99,,,-99.99,,2013-02-19 10:31:00,
2013-02-19 02:41:00,37.0,27.0,-100.00,SE,140,12.0,21.0,67,-99.99,,,-99.99,,2013-02-19 10:41:00,
2013-02-19 02:52:00,37.0,27.0,-100.00,SE,140,12.0,21.0,67,-99.99,,,-99.99,,2013-02-19 10:52:00,
2013-02-19 03:01:00,37.0,26.0,-100.00,SSE,150,12.0,20.0,63,-99.99,,,-99.99,,2013-02-19 11:01:00,
2013-02-19 03:11:00,37.0,26.0,-100.00,SSE,150,12.0,20.0,63,-99.99,,,-99.99,,2013-02-19 11:11:00,
2013-02-19 03:21:00,37.0,27.0,-100.00,SSE,164,13.0,22.0,69,-99.99,,,-99.99,,2013-02-19 11:21:00,
2013-02-19 03:32:00,37.0,27.0,-100.00,SSE,164,13.0,22.0,69,-99.99,,,-99.99,,2013-02-19 11:32:00,
2013-02-19 03:42:00,37.0,29.0,-100.00,SSE,155,11.0,24.0,72,-99.99,,,-99.99,,2013-02-19 11:42:00,
2013-02-19 03:52:00,37.0,29.0,-100.00,SSE,155,11.0,24.0,72,-99.99,,,-99.99,,2013-02-19 11:52:00,
2013-02-19 04:01:00,36.0,29.0,-100.00,SSE,160,8.0,17.0,76,-99.99,,,-99.99,,2013-02-19 12:01:00,
2013-02-19 04:12:00,36.0,29.0,-100.00,SSE,160,8.0,17.0,76,-99.99,,,-99.99,,2013-02-19 12:12:00,
2013-02-19 04:21:00,36.0,31.0,-100.00,SSE,162,6.0,13.0,82,-99.99,,,-99.99,,2013-02-19 12:21:00,
2013-02-19 04:32:00,36.0,31.0,-100.00,SSE,162,6.0,13.0,82,-99.99,,,-99.99,,2013-02-19 12:32:00,
2013-02-19 04:42:00,35.0,32.0,-100.00,SSE,151,9.0,16.0,88,-99.99,,,-99.99,,2013-02-19 12:42:00,
2013-02-19 04:52:00,35.0,32.0,-100.00,SSE,151,9.0,16.0,88,-99.99,,,-99.99,,2013-02-19 12:52:00,
2013-02-19 05:02:00,36.0,30.0,-100.00,SSE,158,9.0,17.0,77,-99.99,,,-99.99,,2013-02-19 13:02:00,
2013-02-19 05:11:00,36.0,30.0,-100.00,SSE,158,9.0,17.0,77,-99.99,,,-99.99,,2013-02-19 13:11:00,
2013-02-19 05:22:00,36.0,29.0,-100.00,SSE,155,7.0,15.0,75,-99.99,,,-99.99,,2013-02-19 13:22:00,
2013-02-19 05:32:00,36.0,29.0,-100.00,SSE,155,7.0,15.0,75,-99.99,,,-99.99,,2013-02-19 13:32:00,
2013-02-19 05:41:00,38.0,26.0,-100.00,SSE,158,10.0,23.0,63,-99.99,,,-99.99,,2013-02-19 13:41:00,
2013-02-19 05:52:00,38.0,26.0,-100.00,SSE,158,10.0,23.0,63,-99.99,,,-99.99,,2013-02-19 13:52:00,
2013-02-19 06:01:00,38.0,26.0,-100.00,SSE,154,8.0,16.0,63,-99.99,,,-99.99,,2013-02-19 14:01:00,
2013-02-19 06:11:00,38.0,26.0,-100.00,SSE,154,8.0,16.0,63,-99.99,,,-99.99,,2013-02-19 14:11:00,
2013-02-19 06:21:00,37.0,26.0,-100.00,SSE,162,9.0,17.0,62,-99.99,,,-99.99,,2013-02-19 14:21:00,
2013-02-19 06:32:00,37.0,26.0,-100.00,SSE,162,9.0,17.0,62,-99.99,,,-99.99,,2013-02-19 14:32:00,
2013-02-19 06:42:00,37.0,24.0,-100.00,South,172,11.0,21.0,58,-99.99,,,-99.99,,2013-02-19 14:42:00,
2013-02-19 06:52:00,37.0,24.0,-100.00,South,172,11.0,21.0,58,-99.99,,,-99.99,,2013-02-19 14:52:00,
2013-02-19 07:01:00,36.0,21.0,-100.00,South,185,13.0,26.0,54,-99.99,,,-99.99,,2013-02-19 15:01:00,
2013-02-19 07:11:00,36.0,21.0,-100.00,South,185,13.0,26.0,54,-99.99,,,-99.99,,2013-02-19 15:11:00,
2013-02-19 07:21:00,36.0,21.0,-100.00,South,189,12.0,22.0,54,-99.99,,,-99.99,,2013-02-19 15:21:00,
2013-02-19 07:31:00,36.0,21.0,-100.00,South,189,12.0,22.0,54,-99.99,,,-99.99,,2013-02-19 15:31:00,
2013-02-19 07:42:00,36.0,21.0,-100.00,SSE,167,11.0,20.0,54,-99.99,,,-99.99,,2013-02-19 15:42:00,
2013-02-19 07:52:00,36.0,21.0,-100.00,SSE,167,11.0,20.0,54,-99.99,,,-99.99,,2013-02-19 15:52:00,
2013-02-19 08:01:00,35.0,20.0,-100.00,South,169,7.0,15.0,54,-99.99,,,-99.99,,2013-02-19 16:01:00,
2013-02-19 08:11:00,35.0,20.0,-100.00,South,169,7.0,15.0,54,-99.99,,,-99.99,,2013-02-19 16:11:00,
2013-02-19 08:21:00,35.0,19.0,-100.00,SSE,167,7.0,16.0,51,-99.99,,,-99.99,,2013-02-19 16:21:00,
2013-02-19 08:32:00,35.0,19.0,-100.00,SSE,167,7.0,16.0,51,-99.99,,,-99.99,,2013-02-19 16:32:00,
2013-02-19 08:41:00,36.0,19.0,-100.00,SSE,168,8.0,15.0,49,-99.99,,,-99.99,,2013-02-19 16:41:00,
2013-02-19 08:52:00,36.0,19.0,-100.00,SSE,168,8.0,15.0,49,-99.99,,,-99.99,,2013-02-19 16:52:00,
2013-02-19 09:01:00,37.0,20.0,-100.00,South,181,9.0,19.0,49,-99.99,,,-99.99,,2013-02-19 17:01:00,
2013-02-19 09:11:00,37.0,20.0,-100.00,South,181,9.0,19.0,49,-99.99,,,-99.99,,2013-02-19 17:11:00,
2013-02-19 09:21:00,37.0,18.0,-100.00,SSW,193,14.0,25.0,45,-99.99,,,-99.99,,2013-02-19 17:21:00,
2013-02-19 09:32:00,37.0,18.0,-100.00,SSW,193,14.0,25.0,45,-99.99,,,-99.99,,2013-02-19 17:32:00,
2013-02-19 09:41:00,38.0,16.0,-100.00,SSW,208,13.0,21.0,41,-99.99,,,-99.99,,2013-02-19 17:41:00,
2013-02-19 09:52:00,38.0,16.0,-100.00,SSW,208,13.0,21.0,41,-99.99,,,-99.99,,2013-02-19 17:52:00,
2013-02-19 10:01:00,39.0,14.0,-100.00,SSW,213,15.0,28.0,36,-99.99,,,-99.99,,2013-02-19 18:01:00,
2013-02-19 10:11:00,39.0,14.0,-100.00,SSW,213,15.0,28.0,36,-99.99,,,-99.99,,2013-02-19 18:11:00,
2013-02-19 10:21:00,38.0,14.0,-100.00,SSW,213,15.0,26.0,37,-99.99,,,-99.99,,2013-02-19 18:21:00,
2013-02-19 10:31:00,38.0,14.0,-100.00,SSW,213,15.0,26.0,37,-99.99,,,-99.99,,2013-02-19 18:31:00,
2013-02-19 10:41:00,40.0,16.0,-100.00,SSW,193,13.0,24.0,38,-99.99,,,-99.99,,2013-02-19 18:41:00,
2013-02-19 10:52:00,40.0,16.0,-100.00,SSW,193,13.0,24.0,38,-99.99,,,-99.99,,2013-02-19 18:52:00,
2013-02-19 11:01:00,39.0,12.0,-100.00,SSW,192,18.0,30.0,33,-99.99,,,-99.99,,2013-02-19 19:01:00,
2013-02-19 11:11:00,39.0,12.0,-100.00,SSW,192,18.0,30.0,33,-99.99,,,-99.99,,2013-02-19 19:11:00,
2013-02-19 11:21:00,40.0,12.0,-100.00,SSW,208,15.0,25.0,32,-99.99,,,-99.99,,2013-02-19 19:21:00,
2013-02-19 11:31:00,40.0,12.0,-100.00,SSW,208,15.0,25.0,32,-99.99,,,-99.99,,2013-02-19 19:31:00,
2013-02-19 11:41:00,40.0,9.0,-100.00,SSW,208,16.0,30.0,27,-99.99,,,-99.99,,2013-02-19 19:41:00,
2013-02-19 11:52:00,40.0,9.0,-100.00,SSW,208,16.0,30.0,27,-99.99,,,-99.99,,2013-02-19 19:52:00,
2013-02-19 12:01:00,41.0,9.0,-100.00,SSW,203,17.0,32.0,27,-99.99,,,-99.99,,2013-02-19 20:01:00,
2013-02-19 12:11:00,41.0,9.0,-100.00,SSW,203,17.0,32.0,27,-99.99,,,-99.99,,2013-02-19 20:11:00,
2013-02-19 12:21:00,41.0,10.0,-100.00,SSW,202,15.0,26.0,28,-99.99,,,-99.99,,2013-02-19 20:21:00,
2013-02-19 12:32:00,41.0,10.0,-100.00,SSW,202,15.0,26.0,28,-99.99,,,-99.99,,2013-02-19 20:32:00,
2013-02-19 12:41:00,39.0,14.0,-100.00,SSW,196,19.0,35.0,36,-99.99,,,-99.99,,2013-02-19 20:41:00,
2013-02-19 12:52:00,39.0,14.0,-100.00,SSW,196,19.0,35.0,36,-99.99,,,-99.99,,2013-02-19 20:52:00,
2013-02-19 13:01:00,39.0,12.0,-100.00,South,189,18.0,35.0,32,-99.99,,,-99.99,,2013-02-19 21:01:00,
2013-02-19 13:11:00,39.0,12.0,-100.00,South,189,18.0,35.0,32,-99.99,,,-99.99,,2013-02-19 21:11:00,
2013-02-19 13:21:00,40.0,10.0,-100.00,South,189,21.0,37.0,29,-99.99,,,-99.99,,2013-02-19 21:21:00,
2013-02-19 13:31:00,40.0,10.0,-100.00,South,189,21.0,37.0,29,-99.99,,,-99.99,,2013-02-19 21:31:00,
2013-02-19 13:42:00,40.0,8.0,-100.00,South,181,21.0,39.0,26,-99.99,,,-99.99,,2013-02-19 21:42:00,
2013-02-19 13:52:00,40.0,8.0,-100.00,South,181,21.0,39.0,26,-99.99,,,-99.99,,2013-02-19 21:52:00,
2013-02-19 14:01:00,38.0,11.0,-100.00,South,185,26.0,44.0,32,-99.99,,,-99.99,,2013-02-19 22:01:00,
2013-02-19 14:11:00,38.0,11.0,-100.00,South,185,26.0,44.0,32,-99.99,,,-99.99,,2013-02-19 22:11:00,
2013-02-19 14:21:00,38.0,13.0,-100.00,South,184,24.0,43.0,36,-99.99,,,-99.99,,2013-02-19 22:21:00,
2013-02-19 14:32:00,38.0,13.0,-100.00,South,184,24.0,43.0,36,-99.99,,,-99.99,,2013-02-19 22:32:00,
2013-02-19 14:41:00,38.0,12.0,-100.00,South,188,23.0,43.0,33,-99.99,,,-99.99,,2013-02-19 22:41:00,
2013-02-19 14:52:00,38.0,12.0,-100.00,South,188,23.0,43.0,33,-99.99,,,-99.99,,2013-02-19 22:52:00,
2013-02-19 15:01:00,38.0,11.0,-100.00,South,186,20.0,35.0,33,-99.99,,,-99.99,,2013-02-19 23:01:00,
2013-02-19 15:11:00,38.0,11.0,-100.00,South,186,20.0,35.0,33,-99.99,,,-99.99,,2013-02-19 23:11:00,
2013-02-19 15:21:00,39.0,11.0,-100.00,South,189,16.0,33.0,31,-99.99,,,-99.99,,2013-02-19 23:21:00,
2013-02-19 15:32:00,39.0,11.0,-100.00,South,189,16.0,33.0,31,-99.99,,,-99.99,,2013-02-19 23:32:00,
2013-02-19 15:41:00,39.0,11.0,-100.00,SSW,208,13.0,23.0,32,-99.99,,,-99.99,,2013-02-19 23:41:00,
2013-02-19 15:52:00,39.0,11.0,-100.00,SSW,208,13.0,23.0,32,-99.99,,,-99.99,,2013-02-19 23:52:00,
2013-02-19 16:01:00,38.0,13.0,-100.00,South,179,13.0,20.0,35,-99.99,,,-99.99,,2013-02-20 00:01:00,
2013-02-19 16:11:00,38.0,13.0,-100.00,South,179,13.0,20.0,35,-99.99,,,-99.99,,2013-02-20 00:11:00,
2013-02-19 16:21:00,38.0,12.0,-100.00,South,191,12.0,22.0,33,-99.99,,,-99.99,,2013-02-20 00:21:00,
2013-02-19 16:31:00,38.0,12.0,-100.00,South,191,12.0,22.0,33,-99.99,,,-99.99,,2013-02-20 00:31:00,
2013-02-19 16:41:00,38.0,11.0,-100.00,SSW,199,13.0,23.0,33,-99.99,,,-99.99,,2013-02-20 00:41:00,
2013-02-19 16:52:00,38.0,11.0,-100.00,SSW,199,13.0,23.0,33,-99.99,,,-99.99,,2013-02-20 00:52:00,
2013-02-19 17:02:00,36.0,12.0,-100.00,South,188,12.0,22.0,36,-99.99,,,-99.99,,2013-02-20 01:02:00,
2013-02-19 17:11:00,36.0,12.0,-100.00,South,188,12.0,22.0,36,-99.99,,,-99.99,,2013-02-20 01:11:00,
2013-02-19 17:21:00,35.0,12.0,-100.00,SSE,155,11.0,21.0,38,-99.99,,,-99.99,,2013-02-20 01:21:00,
2013-02-19 17:32:00,35.0,12.0,-100.00,SSE,155,11.0,21.0,38,-99.99,,,-99.99,,2013-02-20 01:32:00,
2013-02-19 17:41:00,34.0,12.0,-100.00,SSE,158,10.0,20.0,39,-99.99,,,-99.99,,2013-02-20 01:41:00,
2013-02-19 17:52:00,34.0,12.0,-100.00,SSE,158,10.0,20.0,39,-99.99,,,-99.99,,2013-02-20 01:52:00,
2013-02-19 18:01:00,33.0,12.0,-100.00,South,174,10.0,16.0,40,-99.99,,,-99.99,,2013-02-20 02:01:00,
2013-02-19 18:11:00,33.0,12.0,-100.00,South,174,10.0,16.0,40,-99.99,,,-99.99,,2013-02-20 02:11:00,
2013-02-19 18:21:00,33.0,12.0,-100.00,SE,143,6.0,11.0,42,-99.99,,,-99.99,,2013-02-20 02:21:00,
2013-02-19 18:31:00,33.0,12.0,-100.00,SE,143,6.0,11.0,42,-99.99,,,-99.99,,2013-02-20 02:31:00,
2013-02-19 18:41:00,32.0,13.0,-100.00,ESE,120,7.0,12.0,46,-99.99,,,-99.99,,2013-02-20 02:41:00,
2013-02-19 18:52:00,32.0,13.0,-100.00,ESE,120,7.0,12.0,46,-99.99,,,-99.99,,2013-02-20 02:52:00,
2013-02-19 19:01:00,31.0,14.0,-100.00,SSE,150,6.0,13.0,49,-99.99,,,-99.99,,2013-02-20 03:01:00,
2013-02-19 19:12:00,31.0,14.0,-100.00,SSE,150,6.0,13.0,49,-99.99,,,-99.99,,2013-02-20 03:12:00,
2013-02-19 19:21:00,31.0,14.0,-100.00,SSW,192,6.0,13.0,48,-99.99,,,-99.99,,2013-02-20 03:21:00,
2013-02-19 19:32:00,31.0,14.0,-100.00,SSW,192,6.0,13.0,48,-99.99,,,-99.99,,2013-02-20 03:32:00,
2013-02-19 19:41:00,31.0,14.0,-100.00,SSW,192,6.0,13.0,48,-99.99,,,-99.99,,2013-02-20 03:41:00,
2013-02-19 20:01:00,30.0,15.0,-100.00,SE,127,2.0,5.0,52,-99.99,,,-99.99,,2013-02-20 04:01:00,
2013-02-19 20:11:00,30.0,15.0,-100.00,SE,127,2.0,5.0,52,-99.99,,,-99.99,,2013-02-20 04:11:00,
2013-02-19 20:21:00,29.0,14.0,-100.00,ESE,110,3.0,5.0,54,-99.99,,,-99.99,,2013-02-20 04:21:00,
2013-02-19 20:31:00,29.0,14.0,-100.00,ESE,110,3.0,5.0,54,-99.99,,,-99.99,,2013-02-20 04:31:00,
2013-02-19 20:41:00,29.0,14.0,-100.00,ESE,110,3.0,5.0,54,-99.99,,,-99.99,,2013-02-20 04:41:00,
2013-02-19 21:02:00,27.0,15.0,-100.00,NE,41,6.0,8.0,59,-99.99,,,-99.99,,2013-02-20 05:02:00,
2013-02-19 21:12:00,27.0,15.0,-100.00,NE,41,6.0,8.0,59,-99.99,,,-99.99,,2013-02-20 05:12:00,
2013-02-19 21:22:00,30.0,19.0,-100.00,North,354,6.0,13.0,63,-99.99,,,-99.99,,2013-02-20 05:22:00,
2013-02-19 21:32:00,30.0,19.0,-100.00,North,354,6.0,13.0,63,-99.99,,,-99.99,,2013-02-20 05:32:00,
2013-02-19 21:43:00,30.0,19.0,-100.00,NNW,339,3.0,7.0,62,-99.99,,,-99.99,,2013-02-20 05:43:00,
2013-02-19 21:52:00,30.0,19.0,-100.00,NNW,339,3.0,7.0,62,-99.99,,,-99.99,,2013-02-20 05:52:00,
2013-02-19 22:01:00,30.0,19.0,-100.00,NNW,344,2.0,5.0,64,-99.99,,,-99.99,,2013-02-20 06:01:00,
2013-02-19 22:11:00,30.0,19.0,-100.00,NNW,344,2.0,5.0,64,-99.99,,,-99.99,,2013-02-20 06:11:00,
2013-02-19 22:21:00,30.0,20.0,-100.00,ESE,104,2.0,7.0,66,-99.99,,,-99.99,,2013-02-20 06:21:00,
2013-02-19 22:31:00,30.0,20.0,-100.00,ESE,104,2.0,7.0,66,-99.99,,,-99.99,,2013-02-20 06:31:00,
2013-02-19 22:42:00,28.0,20.0,-100.00,SSE,155,2.0,4.0,72,-99.99,,,-99.99,,2013-02-20 06:42:00,
2013-02-19 22:52:00,28.0,20.0,-100.00,SSE,155,2.0,4.0,72,-99.99,,,-99.99,,2013-02-20 06:52:00,
2013-02-19 23:01:00,29.0,19.0,-100.00,NNW,329,4.0,8.0,66,-99.99,,,-99.99,,2013-02-20 07:01:00,
2013-02-19 23:11:00,29.0,19.0,-100.00,NNW,329,4.0,8.0,66,-99.99,,,-99.99,,2013-02-20 07:11:00,
2013-02-19 23:21:00,29.0,19.0,-100.00,NNW,339,3.0,7.0,67,-99.99,,,-99.99,,2013-02-20 07:21:00,
2013-02-19 23:31:00,29.0,19.0,-100.00,NNW,339,3.0,7.0,67,-99.99,,,-99.99,,2013-02-20 07:31:00,
2013-02-19 23:41:00,29.0,19.0,-100.00,NNW,344,3.0,9.0,66,-99.99,,,-99.99,,2013-02-20 07:41:00,
2013-02-19 23:52:00,29.0,19.0,-100.00,NNW,344,3.0,9.0,66,-99.99,,,-99.99,,2013-02-20 07:52:00,